Weather History for Bluefield, WV

Change the Weather History Date:

Friday, December 7, 2012

  Actual Average Record
Temperature  
Mean Temperature 52 °F 39 °F  
Max Temperature 61 °F 47 °F 71 °F (2004)
Min Temperature 43 °F 32 °F 0 °F (1977)
Degree Days  
Heating Degree Days 13 26  
Month to date heating degree days 84 173  
Since 1 July heating degree days 1156 1076  
Cooling Degree Days 0 0  
Month to date cooling degree days 0 0  
Year to date cooling degree days 1007 853  
Growing Degree Days 2 (Base 50)    
Moisture  
Dew Point 43 °F    
Average Humidity 72    
Maximum Humidity 89    
Minimum Humidity 55    
Precipitation  
Precipitation 0.01 in 0.09 in 1.71 in (2011)
Month to date precipitation 0.17 0.68  
Year to date precipitation 40.55 37.40  
Snow  
Snow 0.00 in - - ()
Month to date snowfall 0.0  
Since 1 July snowfall 9.6  
Snow Depth 0.00 in    
Sea Level Pressure  
Sea Level Pressure 30.01 in    
Wind  
Wind Speed 5 mph (SSW)    
Max Wind Speed 15 mph    
Max Gust Speed 18 mph    
Visibility 10 miles    
Events Rain    
T = Trace of Precipitation, MM = Missing Value Source: NWS Daily Summary

Daily Weather History Graph

Daily Weather History Graph

Search for Another Location

Airport:

Trip Planner

Search our weather history database for the weather conditions in past years. The results will help you decide how hot, cold, wet, or windy it might be!

Date:

Astronomy

Dec. 07, 2012 Rise Set
Actual Time 7:25 AM EST 5:07 PM EST
Civil Twilight 6:57 AM EST 5:36 PM EST
Nautical Twilight 6:24 AM EST 6:08 PM EST
Astronomical Twilight 5:52 AM EST 6:40 PM EST
Moon 12:50 AM EST (12/7) 12:56 PM EST (12/7)
Length of Visible Light 10h 39m
Length of Day
9h 41m
Last Quarter, 39% of the Moon is Illuminated
Dec 7
Last Quarter
Dec 13
New
Dec 20
First Quarter
Dec 28
Full
Jan 4
Last Quarter

Hourly Weather History & Observations

Time (EST) Temp. Windchill Dew Point Humidity Pressure Visibility Wind Dir Wind Speed Gust Speed Precip Events Conditions
12:52 AM 46.0 °F 44.8 °F 41.0 °F 83% 30.09 in 10.0 mi ESE 3.5 mph - 0.00 in Rain Light Rain
1:52 AM 45.0 °F 41.2 °F 39.9 °F 82% 30.08 in 10.0 mi SE 6.9 mph - 0.01 in   Overcast
2:52 AM 45.0 °F 43.5 °F 39.0 °F 80% 30.08 in 10.0 mi SSE 3.5 mph - N/A   Overcast
3:52 AM 45.0 °F 43.5 °F 39.0 °F 80% 30.07 in 10.0 mi SSE 3.5 mph - N/A   Partly Cloudy
4:52 AM 45.0 °F 43.5 °F 39.0 °F 80% 30.06 in 10.0 mi SSE 3.5 mph - N/A   Overcast
5:52 AM 48.0 °F - 39.9 °F 74% 30.07 in 10.0 mi South 4.6 mph - N/A   Mostly Cloudy
6:52 AM 48.0 °F - 39.9 °F 74% 30.07 in 10.0 mi Calm Calm - N/A   Partly Cloudy
7:52 AM 43.0 °F 40.3 °F 39.0 °F 86% 30.09 in 10.0 mi South 4.6 mph - N/A   Clear
8:52 AM 53.1 °F - 43.0 °F 69% 30.07 in 10.0 mi South 4.6 mph - N/A   Clear
9:52 AM 55.0 °F - 44.1 °F 67% 30.07 in 10.0 mi Calm Calm - N/A   Clear
10:52 AM 55.9 °F - 44.1 °F 64% 30.06 in 10.0 mi SSW 4.6 mph 16.1 mph N/A   Clear
11:52 AM 60.1 °F - 46.0 °F 60% 30.02 in 10.0 mi SW 9.2 mph - N/A   Scattered Clouds
12:52 PM 59.0 °F - 46.0 °F 62% 30.00 in 10.0 mi SW 8.1 mph - N/A   Overcast
1:52 PM 60.1 °F - 46.0 °F 60% 29.98 in 10.0 mi SW 9.2 mph - N/A   Scattered Clouds
2:52 PM 60.1 °F - 46.0 °F 60% 29.96 in 10.0 mi SW 6.9 mph - N/A   Overcast
3:52 PM 60.1 °F - 45.0 °F 57% 29.95 in 10.0 mi WSW 8.1 mph - N/A   Clear
4:52 PM 57.9 °F - 44.1 °F 60% 29.96 in 10.0 mi SW 8.1 mph - N/A   Clear
5:52 PM 57.0 °F - 44.1 °F 62% 29.95 in 10.0 mi SSW 4.6 mph - N/A   Clear
6:52 PM 55.9 °F - 44.1 °F 64% 29.96 in 10.0 mi SSW 4.6 mph - N/A   Clear
7:52 PM 55.9 °F - 44.1 °F 64% 29.97 in 10.0 mi SSW 3.5 mph - N/A   Overcast
8:52 PM 55.9 °F - 45.0 °F 67% 29.95 in 10.0 mi South 8.1 mph - N/A   Clear
9:52 PM 55.0 °F - 44.1 °F 67% 29.94 in 10.0 mi South 4.6 mph - N/A   Clear
10:52 PM 55.0 °F - 44.1 °F 67% 29.93 in 10.0 mi SSW 3.5 mph - N/A   Partly Cloudy
11:52 PM 54.0 °F - 44.1 °F 69% 29.93 in 10.0 mi SW 5.8 mph - N/A   Overcast